owner,sensor,date,latitude,longitude,vertical_datum,wind_speed,wind_to_direction,wind_speed_of_gust,qcFlag 
DISL,ioos:station:DISL:KATA:1,2012-02-01T00:00:00Z,30.2583,-88.2131,0.0,6.86,109.9,-9999.0,'1111122,1111122,1111122' 
DISL,ioos:station:DISL:KATA:1,2012-02-01T00:30:00Z,30.2583,-88.2131,0.0,7.83,111.4,-9999.0,'1111122,1111122,1111122' 
DISL,ioos:station:DISL:KATA:1,2012-02-01T01:00:00Z,30.2583,-88.2131,0.0,7.8,114.7,-9999.0,'1111122,1111122,1111122' 
DISL,ioos:station:DISL:KATA:1,2012-02-01T01:30:00Z,30.2583,-88.2131,0.0,6.61,120.0,-9999.0,'1111122,1111122,1111122' 
DISL,ioos:station:DISL:KATA:1,2012-02-01T02:00:00Z,30.2583,-88.2131,0.0,5.73,119.9,-9999.0,'1111122,1111122,1111122' 
DISL,ioos:station:DISL:KATA:1,2012-02-01T02:30:00Z,30.2583,-88.2131,0.0,6.2,109.5,-9999.0,'1111122,1111122,1111122' 
DISL,ioos:station:DISL:KATA:1,2012-02-01T03:00:00Z,30.2583,-88.2131,0.0,4.47,98.0,-9999.0,'1111122,1111122,1111122' 
DISL,ioos:station:DISL:KATA:1,2012-02-01T03:30:00Z,30.2583,-88.2131,0.0,4.06,96.5,-9999.0,'1111122,1111122,1111122' 
DISL,ioos:station:DISL:KATA:1,2012-02-01T04:00:00Z,30.2583,-88.2131,0.0,4.49,111.1,-9999.0,'1111122,1111122,1111122' 
DISL,ioos:station:DISL:KATA:1,2012-02-01T04:30:00Z,30.2583,-88.2131,0.0,5.02,106.8,-9999.0,'1111122,1111122,1111122' 
DISL,ioos:station:DISL:KATA:1,2012-02-01T05:00:00Z,30.2583,-88.2131,0.0,5.54,108.3,-9999.0,'1111122,1111122,1111122' 
DISL,ioos:station:DISL:KATA:1,2012-02-01T05:30:00Z,30.2583,-88.2131,0.0,5.54,107.8,-9999.0,'1111122,1111122,1111122' 
DISL,ioos:station:DISL:KATA:1,2012-02-01T06:00:00Z,30.2583,-88.2131,0.0,5.58,115.9,-9999.0,'1111122,1111122,1111122' 
DISL,ioos:station:DISL:KATA:1,2012-02-01T06:30:00Z,30.2583,-88.2131,0.0,5.48,119.9,-9999.0,'1111122,1111122,1111122' 
DISL,ioos:station:DISL:KATA:1,2012-02-01T07:00:00Z,30.2583,-88.2131,0.0,5.91,110.9,-9999.0,'1111122,1111122,1111122' 
DISL,ioos:station:DISL:KATA:1,2012-02-01T07:30:00Z,30.2583,-88.2131,0.0,6.11,111.9,-9999.0,'1111122,1111122,1111122' 
DISL,ioos:station:DISL:KATA:1,2012-02-01T08:00:00Z,30.2583,-88.2131,0.0,6.25,117.0,-9999.0,'1111122,1111122,1111122' 
DISL,ioos:station:DISL:KATA:1,2012-02-01T08:30:00Z,30.2583,-88.2131,0.0,6.19,113.8,-9999.0,'1111122,1111122,1111122' 
DISL,ioos:station:DISL:KATA:1,2012-02-01T09:00:00Z,30.2583,-88.2131,0.0,6.61,113.6,-9999.0,'1111122,1111122,1111122' 
DISL,ioos:station:DISL:KATA:1,2012-02-01T09:30:00Z,30.2583,-88.2131,0.0,5.44,120.1,-9999.0,'1111122,1111122,1111122' 
DISL,ioos:station:DISL:KATA:1,2012-02-01T10:00:00Z,30.2583,-88.2131,0.0,5.49,118.1,-9999.0,'1111122,1111122,1111122' 
DISL,ioos:station:DISL:KATA:1,2012-02-01T10:30:00Z,30.2583,-88.2131,0.0,5.96,106.8,-9999.0,'1111122,1111122,1111122' 
DISL,ioos:station:DISL:KATA:1,2012-02-01T11:00:00Z,30.2583,-88.2131,0.0,5.77,106.1,-9999.0,'1111122,1111122,1111122' 
DISL,ioos:station:DISL:KATA:1,2012-02-01T11:30:00Z,30.2583,-88.2131,0.0,6.27,110.8,-9999.0,'1111122,1111122,1111122' 
DISL,ioos:station:DISL:KATA:1,2012-02-01T12:00:00Z,30.2583,-88.2131,0.0,6.35,123.3,-9999.0,'1111122,1111122,1111122' 
DISL,ioos:station:DISL:KATA:1,2012-02-01T12:30:00Z,30.2583,-88.2131,0.0,7.03,121.0,-9999.0,'1111122,1111122,1111122' 
DISL,ioos:station:DISL:KATA:1,2012-02-01T13:00:00Z,30.2583,-88.2131,0.0,6.18,122.7,-9999.0,'1111122,1111122,1111122' 
DISL,ioos:station:DISL:KATA:1,2012-02-01T13:30:00Z,30.2583,-88.2131,0.0,6.2,123.5,-9999.0,'1111122,1111122,1111122' 
DISL,ioos:station:DISL:KATA:1,2012-02-01T14:00:00Z,30.2583,-88.2131,0.0,5.32,131.3,-9999.0,'1111122,1111122,1111122' 
DISL,ioos:station:DISL:KATA:1,2012-02-01T14:30:00Z,30.2583,-88.2131,0.0,5.45,143.8,-9999.0,'1111122,1111122,1111122' 
DISL,ioos:station:DISL:KATA:1,2012-02-01T15:00:00Z,30.2583,-88.2131,0.0,5.18,150.9,-9999.0,'1111122,1111122,1111122' 
DISL,ioos:station:DISL:KATA:1,2012-02-01T15:30:00Z,30.2583,-88.2131,0.0,4.01,148.6,-9999.0,'1111122,1111122,1111122' 
DISL,ioos:station:DISL:KATA:1,2012-02-01T16:00:00Z,30.2583,-88.2131,0.0,4.59,148.5,-9999.0,'1111122,1111122,1111122' 
DISL,ioos:station:DISL:KATA:1,2012-02-01T16:30:00Z,30.2583,-88.2131,0.0,4.33,162.8,-9999.0,'1111122,1111122,1111122' 
DISL,ioos:station:DISL:KATA:1,2012-02-01T17:00:00Z,30.2583,-88.2131,0.0,4.15,174.5,-9999.0,'1111122,1111122,1111122' 
DISL,ioos:station:DISL:KATA:1,2012-02-01T17:30:00Z,30.2583,-88.2131,0.0,4.03,314.0,-9999.0,'1111122,1111122,1111122' 
DISL,ioos:station:DISL:KATA:1,2012-02-01T18:00:00Z,30.2583,-88.2131,0.0,5.59,355.4,-9999.0,'1111122,1111122,1111122' 
DISL,ioos:station:DISL:KATA:1,2012-02-01T18:30:00Z,30.2583,-88.2131,0.0,4.41,35.1,-9999.0,'1111122,1111122,1111122' 
DISL,ioos:station:DISL:KATA:1,2012-02-01T19:00:00Z,30.2583,-88.2131,0.0,1.81,319.1,-9999.0,'1111122,1111122,1111122' 
DISL,ioos:station:DISL:KATA:1,2012-02-01T19:30:00Z,30.2583,-88.2131,0.0,3.11,154.8,-9999.0,'1111122,1111122,1111122' 
DISL,ioos:station:DISL:KATA:1,2012-02-01T20:00:00Z,30.2583,-88.2131,0.0,2.89,131.2,-9999.0,'1111122,1111122,1111122' 
DISL,ioos:station:DISL:KATA:1,2012-02-01T20:30:00Z,30.2583,-88.2131,0.0,1.77,128.7,-9999.0,'1111122,1111122,1111122' 
DISL,ioos:station:DISL:KATA:1,2012-02-01T21:00:00Z,30.2583,-88.2131,0.0,3.41,139.0,-9999.0,'1111122,1111122,1111122' 
DISL,ioos:station:DISL:KATA:1,2012-02-01T21:30:00Z,30.2583,-88.2131,0.0,3.09,132.1,-9999.0,'1111122,1111122,1111122' 
DISL,ioos:station:DISL:KATA:1,2012-02-01T22:00:00Z,30.2583,-88.2131,0.0,2.12,92.0,-9999.0,'1111122,1111122,1111122' 
DISL,ioos:station:DISL:KATA:1,2012-02-01T22:30:00Z,30.2583,-88.2131,0.0,2.73,140.7,-9999.0,'1111122,1111122,1111122' 
DISL,ioos:station:DISL:KATA:1,2012-02-01T23:00:00Z,30.2583,-88.2131,0.0,3.14,108.0,-9999.0,'1111122,1111122,1111122' 
DISL,ioos:station:DISL:KATA:1,2012-02-01T23:30:00Z,30.2583,-88.2131,0.0,3.23,111.2,-9999.0,'1111122,1111122,1111122' 
DISL,ioos:station:DISL:KATA:1,2012-02-02T00:00:00Z,30.2583,-88.2131,0.0,3.98,116.8,-9999.0,'1111122,1111122,1111122' 
DISL,ioos:station:DISL:KATA:1,2012-02-02T00:30:00Z,30.2583,-88.2131,0.0,2.83,105.1,-9999.0,'1111122,1111122,1111122' 
DISL,ioos:station:DISL:KATA:1,2012-02-02T01:00:00Z,30.2583,-88.2131,0.0,4.02,128.9,-9999.0,'1111122,1111122,1111122' 
DISL,ioos:station:DISL:KATA:1,2012-02-02T01:30:00Z,30.2583,-88.2131,0.0,5.72,140.7,-9999.0,'1111122,1111122,1111122' 
DISL,ioos:station:DISL:KATA:1,2012-02-02T02:00:00Z,30.2583,-88.2131,0.0,6.01,137.6,-9999.0,'1111122,1111122,1111122' 
DISL,ioos:station:DISL:KATA:1,2012-02-02T02:30:00Z,30.2583,-88.2131,0.0,6.94,148.7,-9999.0,'1111122,1111122,1111122' 
DISL,ioos:station:DISL:KATA:1,2012-02-02T03:00:00Z,30.2583,-88.2131,0.0,3.88,168.1,-9999.0,'1111122,1111122,1111122' 
DISL,ioos:station:DISL:KATA:1,2012-02-02T03:30:00Z,30.2583,-88.2131,0.0,1.06,117.2,-9999.0,'1111122,1111122,1111122' 
DISL,ioos:station:DISL:KATA:1,2012-02-02T04:00:00Z,30.2583,-88.2131,0.0,2.85,160.2,-9999.0,'1111122,1111122,1111122' 
DISL,ioos:station:DISL:KATA:1,2012-02-02T04:30:00Z,30.2583,-88.2131,0.0,2.83,119.6,-9999.0,'1111122,1111122,1111122' 
DISL,ioos:station:DISL:KATA:1,2012-02-02T05:00:00Z,30.2583,-88.2131,0.0,3.37,49.5,-9999.0,'1111122,1111122,1111122' 
DISL,ioos:station:DISL:KATA:1,2012-02-02T05:30:00Z,30.2583,-88.2131,0.0,3.46,137.0,-9999.0,'1111122,1111122,1111122' 
DISL,ioos:station:DISL:KATA:1,2012-02-02T06:00:00Z,30.2583,-88.2131,0.0,4.14,182.2,-9999.0,'1111122,1111122,1111122' 
DISL,ioos:station:DISL:KATA:1,2012-02-02T06:30:00Z,30.2583,-88.2131,0.0,2.31,195.2,-9999.0,'1111122,1111122,1111122' 
DISL,ioos:station:DISL:KATA:1,2012-02-02T07:00:00Z,30.2583,-88.2131,0.0,0.68,137.4,-9999.0,'1111122,1111122,1111122' 
DISL,ioos:station:DISL:KATA:1,2012-02-02T07:30:00Z,30.2583,-88.2131,0.0,0.68,175.3,-9999.0,'1111122,1111122,1111122' 
DISL,ioos:station:DISL:KATA:1,2012-02-02T08:00:00Z,30.2583,-88.2131,0.0,2.29,52.98,-9999.0,'1111122,1111122,1111122' 
DISL,ioos:station:DISL:KATA:1,2012-02-02T08:30:00Z,30.2583,-88.2131,0.0,1.55,103.3,-9999.0,'1111122,1111122,1111122' 
DISL,ioos:station:DISL:KATA:1,2012-02-02T09:00:00Z,30.2583,-88.2131,0.0,1.98,195.7,-9999.0,'1111122,1111122,1111122' 
DISL,ioos:station:DISL:KATA:1,2012-02-02T09:30:00Z,30.2583,-88.2131,0.0,0.32,194.3,-9999.0,'1111122,1111122,1111122' 
DISL,ioos:station:DISL:KATA:1,2012-02-02T10:00:00Z,30.2583,-88.2131,0.0,1.16,250.4,-9999.0,'1111122,1111122,1111122' 
DISL,ioos:station:DISL:KATA:1,2012-02-02T10:30:00Z,30.2583,-88.2131,0.0,3.31,6.199,-9999.0,'1111122,1111122,1111122' 
DISL,ioos:station:DISL:KATA:1,2012-02-02T11:00:00Z,30.2583,-88.2131,0.0,3.34,31.07,-9999.0,'1111122,1111122,1111122' 
DISL,ioos:station:DISL:KATA:1,2012-02-02T11:30:00Z,30.2583,-88.2131,0.0,2.38,54.3,-9999.0,'1111122,1111122,1111122' 
DISL,ioos:station:DISL:KATA:1,2012-02-02T12:00:00Z,30.2583,-88.2131,0.0,1.62,63.36,-9999.0,'1111122,1111122,1111122' 
DISL,ioos:station:DISL:KATA:1,2012-02-02T12:30:00Z,30.2583,-88.2131,0.0,2.03,64.74,-9999.0,'1111122,1111122,1111122' 
DISL,ioos:station:DISL:KATA:1,2012-02-02T13:00:00Z,30.2583,-88.2131,0.0,3.92,62.33,-9999.0,'1111122,1111122,1111122' 
DISL,ioos:station:DISL:KATA:1,2012-02-02T13:30:00Z,30.2583,-88.2131,0.0,4.12,43.98,-9999.0,'1111122,1111122,1111122' 
DISL,ioos:station:DISL:KATA:1,2012-02-02T14:00:00Z,30.2583,-88.2131,0.0,3.72,56.86,-9999.0,'1111122,1111122,1111122' 
DISL,ioos:station:DISL:KATA:1,2012-02-02T14:30:00Z,30.2583,-88.2131,0.0,4.04,55.93,-9999.0,'1111122,1111122,1111122' 
DISL,ioos:station:DISL:KATA:1,2012-02-02T15:00:00Z,30.2583,-88.2131,0.0,5.28,63.9,-9999.0,'1111122,1111122,1111122' 
DISL,ioos:station:DISL:KATA:1,2012-02-02T15:30:00Z,30.2583,-88.2131,0.0,5.36,60.98,-9999.0,'1111122,1111122,1111122' 
DISL,ioos:station:DISL:KATA:1,2012-02-02T16:00:00Z,30.2583,-88.2131,0.0,6.18,54.27,-9999.0,'1111122,1111122,1111122' 
DISL,ioos:station:DISL:KATA:1,2012-02-02T16:30:00Z,30.2583,-88.2131,0.0,5.73,56.41,-9999.0,'1111122,1111122,1111122' 
DISL,ioos:station:DISL:KATA:1,2012-02-02T17:00:00Z,30.2583,-88.2131,0.0,4.93,60.91,-9999.0,'1111122,1111122,1111122' 
DISL,ioos:station:DISL:KATA:1,2012-02-02T17:30:00Z,30.2583,-88.2131,0.0,5.25,57.4,-9999.0,'1111122,1111122,1111122' 
DISL,ioos:station:DISL:KATA:1,2012-02-02T18:00:00Z,30.2583,-88.2131,0.0,5.62,57.26,-9999.0,'1111122,1111122,1111122' 
DISL,ioos:station:DISL:KATA:1,2012-02-02T18:30:00Z,30.2583,-88.2131,0.0,5.08,63.7,-9999.0,'1111122,1111122,1111122' 
DISL,ioos:station:DISL:KATA:1,2012-02-02T19:00:00Z,30.2583,-88.2131,0.0,4.29,71.48,-9999.0,'1111122,1111122,1111122' 
DISL,ioos:station:DISL:KATA:1,2012-02-02T19:30:00Z,30.2583,-88.2131,0.0,4.36,75.14,-9999.0,'1111122,1111122,1111122' 
DISL,ioos:station:DISL:KATA:1,2012-02-02T20:00:00Z,30.2583,-88.2131,0.0,4.31,69.43,-9999.0,'1111122,1111122,1111122' 
DISL,ioos:station:DISL:KATA:1,2012-02-02T20:30:00Z,30.2583,-88.2131,0.0,5.18,64.7,-9999.0,'1111122,1111122,1111122' 
DISL,ioos:station:DISL:KATA:1,2012-02-02T21:00:00Z,30.2583,-88.2131,0.0,4.48,62.01,-9999.0,'1111122,1111122,1111122' 
DISL,ioos:station:DISL:KATA:1,2012-02-02T21:30:00Z,30.2583,-88.2131,0.0,5.88,50.18,-9999.0,'1111122,1111122,1111122' 
DISL,ioos:station:DISL:KATA:1,2012-02-02T22:00:00Z,30.2583,-88.2131,0.0,4.08,63.28,-9999.0,'1111122,1111122,1111122' 
DISL,ioos:station:DISL:KATA:1,2012-02-02T22:30:00Z,30.2583,-88.2131,0.0,4.0,90.5,-9999.0,'1111122,1111122,1111122' 
DISL,ioos:station:DISL:KATA:1,2012-02-02T23:00:00Z,30.2583,-88.2131,0.0,3.92,84.5,-9999.0,'1111122,1111122,1111122' 
DISL,ioos:station:DISL:KATA:1,2012-02-02T23:30:00Z,30.2583,-88.2131,0.0,4.42,82.9,-9999.0,'1111122,1111122,1111122' 
DISL,ioos:station:DISL:KATA:1,2012-02-03T00:00:00Z,30.2583,-88.2131,0.0,4.86,81.1,-9999.0,'1111122,1111122,1111122' 
DISL,ioos:station:DISL:KATA:1,2012-02-03T00:30:00Z,30.2583,-88.2131,0.0,6.3,77.18,-9999.0,'1111122,1111122,1111122' 
DISL,ioos:station:DISL:KATA:1,2012-02-03T01:00:00Z,30.2583,-88.2131,0.0,5.25,79.29,-9999.0,'1111122,1111122,1111122' 
DISL,ioos:station:DISL:KATA:1,2012-02-03T01:30:00Z,30.2583,-88.2131,0.0,6.22,75.76,-9999.0,'1111122,1111122,1111122' 
DISL,ioos:station:DISL:KATA:1,2012-02-03T02:00:00Z,30.2583,-88.2131,0.0,7.35,69.8,-9999.0,'1111122,1111122,1111122' 
DISL,ioos:station:DISL:KATA:1,2012-02-03T02:30:00Z,30.2583,-88.2131,0.0,5.9,68.74,-9999.0,'1111122,1111122,1111122' 
DISL,ioos:station:DISL:KATA:1,2012-02-03T03:00:00Z,30.2583,-88.2131,0.0,4.73,77.31,-9999.0,'1111122,1111122,1111122' 
DISL,ioos:station:DISL:KATA:1,2012-02-03T03:30:00Z,30.2583,-88.2131,0.0,5.08,75.27,-9999.0,'1111122,1111122,1111122' 
DISL,ioos:station:DISL:KATA:1,2012-02-03T04:00:00Z,30.2583,-88.2131,0.0,3.48,79.02,-9999.0,'1111122,1111122,1111122' 
DISL,ioos:station:DISL:KATA:1,2012-02-03T04:30:00Z,30.2583,-88.2131,0.0,4.27,92.1,-9999.0,'1111122,1111122,1111122' 
DISL,ioos:station:DISL:KATA:1,2012-02-03T05:00:00Z,30.2583,-88.2131,0.0,4.0,99.3,-9999.0,'1111122,1111122,1111122' 
DISL,ioos:station:DISL:KATA:1,2012-02-03T05:30:00Z,30.2583,-88.2131,0.0,3.35,83.6,-9999.0,'1111122,1111122,1111122' 
DISL,ioos:station:DISL:KATA:1,2012-02-03T06:00:00Z,30.2583,-88.2131,0.0,3.39,61.68,-9999.0,'1111122,1111122,1111122' 
DISL,ioos:station:DISL:KATA:1,2012-02-03T06:30:00Z,30.2583,-88.2131,0.0,4.48,64.5,-9999.0,'1111122,1111122,1111122' 
DISL,ioos:station:DISL:KATA:1,2012-02-03T07:00:00Z,30.2583,-88.2131,0.0,4.24,66.15,-9999.0,'1111122,1111122,1111122' 
DISL,ioos:station:DISL:KATA:1,2012-02-03T07:30:00Z,30.2583,-88.2131,0.0,4.14,65.24,-9999.0,'1111122,1111122,1111122' 
DISL,ioos:station:DISL:KATA:1,2012-02-03T08:00:00Z,30.2583,-88.2131,0.0,4.7,58.56,-9999.0,'1111122,1111122,1111122' 
DISL,ioos:station:DISL:KATA:1,2012-02-03T08:30:00Z,30.2583,-88.2131,0.0,5.22,67.92,-9999.0,'1111122,1111122,1111122' 
DISL,ioos:station:DISL:KATA:1,2012-02-03T09:00:00Z,30.2583,-88.2131,0.0,5.87,66.12,-9999.0,'1111122,1111122,1111122' 
DISL,ioos:station:DISL:KATA:1,2012-02-03T09:30:00Z,30.2583,-88.2131,0.0,6.37,67.52,-9999.0,'1111122,1111122,1111122' 
DISL,ioos:station:DISL:KATA:1,2012-02-03T10:00:00Z,30.2583,-88.2131,0.0,5.64,65.92,-9999.0,'1111122,1111122,1111122' 
DISL,ioos:station:DISL:KATA:1,2012-02-03T10:30:00Z,30.2583,-88.2131,0.0,5.38,67.01,-9999.0,'1111122,1111122,1111122' 
DISL,ioos:station:DISL:KATA:1,2012-02-03T11:00:00Z,30.2583,-88.2131,0.0,6.96,81.2,-9999.0,'1111122,1111122,1111122' 
DISL,ioos:station:DISL:KATA:1,2012-02-03T11:30:00Z,30.2583,-88.2131,0.0,5.94,58.21,-9999.0,'1111122,1111122,1111122' 
DISL,ioos:station:DISL:KATA:1,2012-02-03T12:00:00Z,30.2583,-88.2131,0.0,6.5,74.97,-9999.0,'1111122,1111122,1111122' 
DISL,ioos:station:DISL:KATA:1,2012-02-03T12:30:00Z,30.2583,-88.2131,0.0,5.98,80.6,-9999.0,'1111122,1111122,1111122' 
DISL,ioos:station:DISL:KATA:1,2012-02-03T13:00:00Z,30.2583,-88.2131,0.0,5.27,75.28,-9999.0,'1111122,1111122,1111122' 
DISL,ioos:station:DISL:KATA:1,2012-02-03T13:30:00Z,30.2583,-88.2131,0.0,7.96,92.3,-9999.0,'1111122,1111122,1111122' 
DISL,ioos:station:DISL:KATA:1,2012-02-03T14:00:00Z,30.2583,-88.2131,0.0,8.38,97.9,-9999.0,'1111122,1111122,1111122' 
DISL,ioos:station:DISL:KATA:1,2012-02-03T14:30:00Z,30.2583,-88.2131,0.0,9.36,98.1,-9999.0,'1111122,1111122,1111122' 
DISL,ioos:station:DISL:KATA:1,2012-02-03T15:00:00Z,30.2583,-88.2131,0.0,7.88,102.3,-9999.0,'1111122,1111122,1111122' 
DISL,ioos:station:DISL:KATA:1,2012-02-03T15:30:00Z,30.2583,-88.2131,0.0,7.68,99.5,-9999.0,'1111122,1111122,1111122' 
DISL,ioos:station:DISL:KATA:1,2012-02-03T16:00:00Z,30.2583,-88.2131,0.0,7.56,100.2,-9999.0,'1111122,1111122,1111122' 
DISL,ioos:station:DISL:KATA:1,2012-02-03T16:30:00Z,30.2583,-88.2131,0.0,6.87,97.3,-9999.0,'1111122,1111122,1111122' 
DISL,ioos:station:DISL:KATA:1,2012-02-03T17:00:00Z,30.2583,-88.2131,0.0,7.06,96.0,-9999.0,'1111122,1111122,1111122' 
DISL,ioos:station:DISL:KATA:1,2012-02-03T17:30:00Z,30.2583,-88.2131,0.0,7.41,97.1,-9999.0,'1111122,1111122,1111122' 
DISL,ioos:station:DISL:KATA:1,2012-02-03T18:00:00Z,30.2583,-88.2131,0.0,7.46,96.9,-9999.0,'1111122,1111122,1111122' 
DISL,ioos:station:DISL:KATA:1,2012-02-03T18:30:00Z,30.2583,-88.2131,0.0,7.0,99.3,-9999.0,'1111122,1111122,1111122' 
DISL,ioos:station:DISL:KATA:1,2012-02-03T19:00:00Z,30.2583,-88.2131,0.0,7.5,98.5,-9999.0,'1111122,1111122,1111122' 
DISL,ioos:station:DISL:KATA:1,2012-02-03T19:30:00Z,30.2583,-88.2131,0.0,7.45,104.7,-9999.0,'1111122,1111122,1111122' 
DISL,ioos:station:DISL:KATA:1,2012-02-03T20:00:00Z,30.2583,-88.2131,0.0,7.71,103.4,-9999.0,'1111122,1111122,1111122' 
DISL,ioos:station:DISL:KATA:1,2012-02-03T20:30:00Z,30.2583,-88.2131,0.0,8.26,102.7,-9999.0,'1111122,1111122,1111122' 
DISL,ioos:station:DISL:KATA:1,2012-02-03T21:00:00Z,30.2583,-88.2131,0.0,7.98,97.4,-9999.0,'1111122,1111122,1111122' 
DISL,ioos:station:DISL:KATA:1,2012-02-03T21:30:00Z,30.2583,-88.2131,0.0,7.82,101.4,-9999.0,'1111122,1111122,1111122' 
DISL,ioos:station:DISL:KATA:1,2012-02-03T22:00:00Z,30.2583,-88.2131,0.0,7.83,98.7,-9999.0,'1111122,1111122,1111122' 
DISL,ioos:station:DISL:KATA:1,2012-02-03T22:30:00Z,30.2583,-88.2131,0.0,7.78,94.7,-9999.0,'1111122,1111122,1111122' 
DISL,ioos:station:DISL:KATA:1,2012-02-03T23:00:00Z,30.2583,-88.2131,0.0,7.69,95.6,-9999.0,'1111122,1111122,1111122' 
DISL,ioos:station:DISL:KATA:1,2012-02-03T23:30:00Z,30.2583,-88.2131,0.0,8.99,94.4,-9999.0,'1111122,1111122,1111122' 
DISL,ioos:station:DISL:KATA:1,2012-02-04T00:00:00Z,30.2583,-88.2131,0.0,9.6,97.7,-9999.0,'1111122,1111122,1111122' 
DISL,ioos:station:DISL:KATA:1,2012-02-04T00:30:00Z,30.2583,-88.2131,0.0,10.08,98.9,-9999.0,'1111122,1111122,1111122' 
DISL,ioos:station:DISL:KATA:1,2012-02-04T01:00:00Z,30.2583,-88.2131,0.0,9.48,98.0,-9999.0,'1111122,1111122,1111122' 
DISL,ioos:station:DISL:KATA:1,2012-02-04T01:30:00Z,30.2583,-88.2131,0.0,9.54,98.1,-9999.0,'1111122,1111122,1111122' 
DISL,ioos:station:DISL:KATA:1,2012-02-04T02:00:00Z,30.2583,-88.2131,0.0,9.3,100.4,-9999.0,'1111122,1111122,1111122' 
DISL,ioos:station:DISL:KATA:1,2012-02-04T02:30:00Z,30.2583,-88.2131,0.0,9.64,99.9,-9999.0,'1111122,1111122,1111122' 
DISL,ioos:station:DISL:KATA:1,2012-02-04T03:00:00Z,30.2583,-88.2131,0.0,9.63,98.0,-9999.0,'1111122,1111122,1111122' 
DISL,ioos:station:DISL:KATA:1,2012-02-04T03:30:00Z,30.2583,-88.2131,0.0,9.6,103.0,-9999.0,'1111122,1111122,1111122' 
DISL,ioos:station:DISL:KATA:1,2012-02-04T04:00:00Z,30.2583,-88.2131,0.0,9.61,104.9,-9999.0,'1111122,1111122,1111122' 
DISL,ioos:station:DISL:KATA:1,2012-02-04T04:30:00Z,30.2583,-88.2131,0.0,8.75,109.1,-9999.0,'1111122,1111122,1111122' 
DISL,ioos:station:DISL:KATA:1,2012-02-04T05:00:00Z,30.2583,-88.2131,0.0,8.85,107.9,-9999.0,'1111122,1111122,1111122' 
DISL,ioos:station:DISL:KATA:1,2012-02-04T05:30:00Z,30.2583,-88.2131,0.0,8.56,113.4,-9999.0,'1111122,1111122,1111122' 
DISL,ioos:station:DISL:KATA:1,2012-02-04T06:00:00Z,30.2583,-88.2131,0.0,7.89,114.8,-9999.0,'1111122,1111122,1111122' 
DISL,ioos:station:DISL:KATA:1,2012-02-04T06:30:00Z,30.2583,-88.2131,0.0,7.41,119.1,-9999.0,'1111122,1111122,1111122' 
DISL,ioos:station:DISL:KATA:1,2012-02-04T07:00:00Z,30.2583,-88.2131,0.0,7.65,121.9,-9999.0,'1111122,1111122,1111122' 
DISL,ioos:station:DISL:KATA:1,2012-02-04T07:30:00Z,30.2583,-88.2131,0.0,5.31,104.0,-9999.0,'1111122,1111122,1111122' 
DISL,ioos:station:DISL:KATA:1,2012-02-04T08:00:00Z,30.2583,-88.2131,0.0,7.34,129.5,-9999.0,'1111122,1111122,1111122' 
DISL,ioos:station:DISL:KATA:1,2012-02-04T08:30:00Z,30.2583,-88.2131,0.0,8.04,129.8,-9999.0,'1111122,1111122,1111122' 
DISL,ioos:station:DISL:KATA:1,2012-02-04T09:00:00Z,30.2583,-88.2131,0.0,8.07,137.3,-9999.0,'1111122,1111122,1111122' 
DISL,ioos:station:DISL:KATA:1,2012-02-04T09:30:00Z,30.2583,-88.2131,0.0,6.43,129.8,-9999.0,'1111122,1111122,1111122' 
DISL,ioos:station:DISL:KATA:1,2012-02-04T10:00:00Z,30.2583,-88.2131,0.0,5.77,118.4,-9999.0,'1111122,1111122,1111122' 
DISL,ioos:station:DISL:KATA:1,2012-02-04T10:30:00Z,30.2583,-88.2131,0.0,6.44,104.8,-9999.0,'1111122,1111122,1111122' 
DISL,ioos:station:DISL:KATA:1,2012-02-04T11:00:00Z,30.2583,-88.2131,0.0,5.9,95.8,-9999.0,'1111122,1111122,1111122' 
DISL,ioos:station:DISL:KATA:1,2012-02-04T11:30:00Z,30.2583,-88.2131,0.0,6.08,92.8,-9999.0,'1111122,1111122,1111122' 
DISL,ioos:station:DISL:KATA:1,2012-02-04T12:00:00Z,30.2583,-88.2131,0.0,5.19,85.4,-9999.0,'1111122,1111122,1111122' 
DISL,ioos:station:DISL:KATA:1,2012-02-04T12:30:00Z,30.2583,-88.2131,0.0,6.19,93.1,-9999.0,'1111122,1111122,1111122' 
DISL,ioos:station:DISL:KATA:1,2012-02-04T13:00:00Z,30.2583,-88.2131,0.0,5.46,98.6,-9999.0,'1111122,1111122,1111122' 
DISL,ioos:station:DISL:KATA:1,2012-02-04T13:30:00Z,30.2583,-88.2131,0.0,6.47,102.1,-9999.0,'1111122,1111122,1111122' 
DISL,ioos:station:DISL:KATA:1,2012-02-04T14:00:00Z,30.2583,-88.2131,0.0,7.56,103.0,-9999.0,'1111122,1111122,1111122' 
DISL,ioos:station:DISL:KATA:1,2012-02-04T14:30:00Z,30.2583,-88.2131,0.0,7.42,104.5,-9999.0,'1111122,1111122,1111122' 
DISL,ioos:station:DISL:KATA:1,2012-02-04T15:00:00Z,30.2583,-88.2131,0.0,7.03,102.7,-9999.0,'1111122,1111122,1111122' 
DISL,ioos:station:DISL:KATA:1,2012-02-04T15:30:00Z,30.2583,-88.2131,0.0,6.92,105.7,-9999.0,'1111122,1111122,1111122' 
DISL,ioos:station:DISL:KATA:1,2012-02-04T16:00:00Z,30.2583,-88.2131,0.0,6.7,105.2,-9999.0,'1111122,1111122,1111122' 
DISL,ioos:station:DISL:KATA:1,2012-02-04T16:30:00Z,30.2583,-88.2131,0.0,6.62,106.6,-9999.0,'1111122,1111122,1111122' 
DISL,ioos:station:DISL:KATA:1,2012-02-04T17:00:00Z,30.2583,-88.2131,0.0,7.27,107.7,-9999.0,'1111122,1111122,1111122' 
DISL,ioos:station:DISL:KATA:1,2012-02-04T17:30:00Z,30.2583,-88.2131,0.0,7.24,110.9,-9999.0,'1111122,1111122,1111122' 
DISL,ioos:station:DISL:KATA:1,2012-02-04T18:00:00Z,30.2583,-88.2131,0.0,7.03,118.4,-9999.0,'1111122,1111122,1111122' 
DISL,ioos:station:DISL:KATA:1,2012-02-04T18:30:00Z,30.2583,-88.2131,0.0,5.78,119.6,-9999.0,'1111122,1111122,1111122' 
DISL,ioos:station:DISL:KATA:1,2012-02-04T19:00:00Z,30.2583,-88.2131,0.0,5.09,115.7,-9999.0,'1111122,1111122,1111122' 
DISL,ioos:station:DISL:KATA:1,2012-02-04T19:30:00Z,30.2583,-88.2131,0.0,5.13,119.9,-9999.0,'1111122,1111122,1111122' 
DISL,ioos:station:DISL:KATA:1,2012-02-04T20:00:00Z,30.2583,-88.2131,0.0,4.37,118.5,-9999.0,'1111122,1111122,1111122' 
DISL,ioos:station:DISL:KATA:1,2012-02-04T20:30:00Z,30.2583,-88.2131,0.0,4.59,120.4,-9999.0,'1111122,1111122,1111122' 
DISL,ioos:station:DISL:KATA:1,2012-02-04T21:00:00Z,30.2583,-88.2131,0.0,5.1,119.5,-9999.0,'1111122,1111122,1111122' 
DISL,ioos:station:DISL:KATA:1,2012-02-04T21:30:00Z,30.2583,-88.2131,0.0,5.66,116.0,-9999.0,'1111122,1111122,1111122' 
DISL,ioos:station:DISL:KATA:1,2012-02-04T22:00:00Z,30.2583,-88.2131,0.0,5.34,116.8,-9999.0,'1111122,1111122,1111122' 
DISL,ioos:station:DISL:KATA:1,2012-02-04T22:30:00Z,30.2583,-88.2131,0.0,6.67,115.0,-9999.0,'1111122,1111122,1111122' 
DISL,ioos:station:DISL:KATA:1,2012-02-04T23:00:00Z,30.2583,-88.2131,0.0,5.41,121.4,-9999.0,'1111122,1111122,1111122' 
DISL,ioos:station:DISL:KATA:1,2012-02-04T23:30:00Z,30.2583,-88.2131,0.0,4.96,123.8,-9999.0,'1111122,1111122,1111122' 
DISL,ioos:station:DISL:KATA:1,2012-02-05T00:00:00Z,30.2583,-88.2131,0.0,4.09,128.6,-9999.0,'1111122,1111122,1111122' 
DISL,ioos:station:DISL:KATA:1,2012-02-05T00:30:00Z,30.2583,-88.2131,0.0,3.41,134.9,-9999.0,'1111122,1111122,1111122' 
DISL,ioos:station:DISL:KATA:1,2012-02-05T01:00:00Z,30.2583,-88.2131,0.0,4.38,129.8,-9999.0,'1111122,1111122,1111122' 
DISL,ioos:station:DISL:KATA:1,2012-02-05T01:30:00Z,30.2583,-88.2131,0.0,3.58,126.3,-9999.0,'1111122,1111122,1111122' 
DISL,ioos:station:DISL:KATA:1,2012-02-05T02:00:00Z,30.2583,-88.2131,0.0,4.76,123.8,-9999.0,'1111122,1111122,1111122' 
DISL,ioos:station:DISL:KATA:1,2012-02-05T02:30:00Z,30.2583,-88.2131,0.0,4.5,129.0,-9999.0,'1111122,1111122,1111122' 
DISL,ioos:station:DISL:KATA:1,2012-02-05T03:00:00Z,30.2583,-88.2131,0.0,3.88,118.9,-9999.0,'1111122,1111122,1111122' 
DISL,ioos:station:DISL:KATA:1,2012-02-05T03:30:00Z,30.2583,-88.2131,0.0,4.04,128.6,-9999.0,'1111122,1111122,1111122' 
DISL,ioos:station:DISL:KATA:1,2012-02-05T04:00:00Z,30.2583,-88.2131,0.0,4.13,141.9,-9999.0,'1111122,1111122,1111122' 
DISL,ioos:station:DISL:KATA:1,2012-02-05T04:30:00Z,30.2583,-88.2131,0.0,3.46,142.4,-9999.0,'1111122,1111122,1111122' 
DISL,ioos:station:DISL:KATA:1,2012-02-05T05:00:00Z,30.2583,-88.2131,0.0,3.74,138.1,-9999.0,'1111122,1111122,1111122' 